Location: Unspecified
(44.0716°N, 0.0000°E)
Time: 04:16:49
(UTC+00:00)

Pegasus Rocket - Visible Passes

Search period start: 04 April 2026 00:00
Search period end: 14 April 2026 00:00
Orbit: 788 x 818 km, 70.0° (Epoch: 29 March)

Date Brightness Start Highest point End Pass type
(mag) Time Alt. Az. Time Alt. Az. Time Alt. Az.
4 Apr 8.0 01:54:10 22° E 01:54:10 22° E 01:57:38 10° NE visible
4 Apr 6.3 03:35:10 44° W 03:36:24 52° WNW 03:41:43 10° NNE visible
5 Apr 8.4 01:28:11 16° E 01:28:11 16° E 01:30:23 10° ENE visible
5 Apr 6.0 03:09:11 64° W 03:09:36 67° WNW 03:15:03 10° NNE visible
5 Apr 8.1 04:51:22 10° WNW 04:54:02 14° NW 04:56:42 10° N visible
6 Apr 8.7 01:02:09 11° ENE 01:02:09 11° ENE 01:02:47 10° ENE visible
6 Apr 6.0 02:43:09 80° N 02:43:09 80° N 02:48:20 10° NNE visible
6 Apr 7.9 04:24:09 11° WNW 04:27:02 17° NW 04:30:27 10° N visible
7 Apr 6.5 02:17:05 59° NE 02:17:05 59° NE 02:21:35 10° NNE visible
7 Apr 7.7 03:58:04 17° WNW 04:00:05 20° NW 04:04:03 10° N visible
8 Apr 7.1 01:50:58 42° ENE 01:50:58 42° ENE 01:54:46 10° NE visible
8 Apr 7.4 03:31:57 23° WNW 03:33:08 25° NW 03:37:35 10° N visible
9 Apr 7.6 01:24:49 30° ENE 01:24:49 30° ENE 01:27:54 10° NE visible
9 Apr 7.1 03:05:49 30° WNW 03:06:15 30° NW 03:11:02 10° N visible
10 Apr 8.1 00:58:39 22° ENE 00:58:39 22° ENE 01:00:59 10° NE visible
10 Apr 6.9 02:39:38 37° NW 02:39:38 37° NW 02:44:28 10° NNE visible
11 Apr 8.4 00:32:26 17° ENE 00:32:26 17° ENE 00:33:57 10° NE visible
11 Apr 6.9 02:13:25 43° NNW 02:13:25 43° NNW 02:17:50 10° NNE visible
11 Apr 8.4 03:56:36 10° NW 03:57:21 10° NW 03:58:04 10° NNW visible
12 Apr 8.7 00:06:12 12° ENE 00:06:12 12° ENE 00:06:47 10° ENE visible
12 Apr 7.0 01:47:11 45° N 01:47:11 45° N 01:51:11 10° NNE visible
12 Apr 8.3 03:28:10 10° WNW 03:30:17 13° NW 03:32:36 10° NNW visible
13 Apr 7.2 01:20:55 41° NNE 01:20:55 41° NNE 01:24:29 10° NNE visible
13 Apr 8.1 03:01:54 14° WNW 03:03:16 15° NW 03:06:25 10° N visible
